Orbital Elements at Epoch 2459000.5 (2020-May-31.0) TDB
Reference: JPL 29 (heliocentric ecliptic J2000)
Element | Value | Uncertainty (1-sigma) | Units |
e | .1048449846827988 | 3.9946e-08 | |
a | 3.068238797141238 | 1.8513e-08 | au |
q | 2.746549347451796 | 1.2675e-07 | au |
i | 10.44891122560238 | 4.918e-06 | deg |
node | 237.8560383509732 | 2.285e-05 | deg |
peri | 250.7441935931161 | 3.5023e-05 | deg |
M | 327.1892411284456 | 2.5548e-05 | deg |
tp | 2459179.414663953279 (2020-Nov-25.91466395) | 0.00013964 | TDB |
period | 1963.053621384555 5.37 | 1.7767e-05 4.864e-08 | d yr |
n | .1833877567471079 | 1.6598e-09 | deg/d |
Q | 3.38992824683068 | 2.0454e-08 | au |
|
| | Orbit Determination Parameters
Additional Information
|